KUIPER-00605

导读

KUIPER-00605(NORAD编号69288)是亚马逊柯伊伯卫星互联网项目的低轨通信卫星,该项目旨在为北纬56°至南纬56°区域的全球用户提供高速低延迟的互联网接入服务。卫星属于柯伊伯星座组成部分,采用Ka频段通信,发射后先进入约450公里的初始轨道,后通过电推进系统提升至630公里的工作轨道运行。该卫星由华盛顿州雷德蒙德的柯伊伯任务控制中心管控,目前在轨正常执行通信组网任务,是亚马逊计划2026年7月前完成部署1618颗星座卫星进度中的在轨成员。

基本信息
目录编号:
69288
目录名称:
KUIPER-00605
国际标识:
2026-118X
轨道中心:
EARTH
卫星名称:
KUIPER-00605
卫星全名:
KUIPER-00605
卫星状态:
在轨 (已飞行106 天)
发射日期:
2026-05-29 UTC
国别 :
美国 (US)
星等 :
--
该卫星已列入 空间交会检测服务 Space Conjunction Data Service (SCDS) ,当前飞行风险评估等级: 无高风险
轨道信息
数据来源 国际轨道数据
星历时间: 2026-09-11T22:35:24+0800
15小时前
查看轨道信息
半长轴: 7007.7km
偏心率: 0.0000443
轨道倾角: 51.901°
近地点辐角 108.027°
升交点赤经 20.997°
平近点角 252.074°
近地点: 629.252km
远地点: 629.874km
周期: 97.302分钟
每日圈数: 14.799244
详细信息
使用方式:
暂无
2D轨道图
3D轨道图
轨道高度分析图
轨道倾角分析图
轨道综合分析图
查看轨道综合分析图
交会数据列表
事件ID 空间交会对象 最接近时刻(TCA) 交会距离 交会风险概率(CRP) 交会风险指数(CRI) 操作
CDM_260906-173903-162506-928822
2026-09-06T
17:39:20+0000
1.128 km
极远距离
1.160937E-5 中风险 0.56
CDM_260912-205204-095806-928822
LQSAT (40958)
2026-09-12T
20:52:57+0000
2.619 km
极远距离
1.531555E-6 低风险 0.39
与全量物体交会距离演化趋势
与全量物体交会风险概率演化趋势